DFWGD LFLB-LFLJ

Flight info

Callsign DFWGD
Flight time 0h 43m
Altitude 13000
Route PAS T37 PADCA
Aircraft PC12/L-SDFGRWY/S

Departure

Time 2026-05-04 20:42
Airport Chambéry Aix les Bains airport (LFLB)

Arrival

Time 2026-05-04 21:26
Airport Courchevel Altiport (LFLJ)
Time Latitude Longitude Altitude Speed Heading
2026-05-04 20:22 45.63520 5.88338 777 ft 0 kts 87°
2026-05-04 20:37 45.63506 5.88312 777 ft 0 kts 22°
2026-05-04 20:37 45.63505 5.88312 777 ft 0 kts 22°
2026-05-04 20:38 45.63508 5.88313 777 ft 3 kts 27°
2026-05-04 20:38 45.63512 5.88317 777 ft 0 kts 34°
2026-05-04 20:38 45.63513 5.88319 777 ft 1 kts 73°
2026-05-04 20:39 45.63481 5.88332 777 ft 10 kts 190°
2026-05-04 20:39 45.63452 5.88268 777 ft 11 kts 237°
2026-05-04 20:39 45.63348 5.88267 778 ft 21 kts 178°
2026-05-04 20:39 45.63198 5.88277 779 ft 1 kts 176°
2026-05-04 20:40 45.63197 5.88277 779 ft 0 kts 176°
2026-05-04 20:40 45.63196 5.88275 779 ft 2 kts 211°
2026-05-04 20:41 45.63170 5.88237 780 ft 9 kts 226°
2026-05-04 20:41 45.63113 5.88142 781 ft 14 kts 245°
2026-05-04 20:41 45.63148 5.88093 782 ft 14 kts 353°
2026-05-04 20:41 45.63423 5.88053 777 ft 69 kts 357°
2026-05-04 20:42 45.64035 5.87989 885 ft 99 kts 355°
2026-05-04 20:42 45.64780 5.87969 1200 ft 112 kts
2026-05-04 20:42 45.65598 5.88108 1419 ft 133 kts 11°
2026-05-04 20:42 45.66618 5.88086 1433 ft 148 kts 353°
2026-05-04 20:43 45.67606 5.87861 1511 ft 149 kts 352°
2026-05-04 20:43 45.68655 5.87676 1622 ft 151 kts 355°
2026-05-04 20:43 45.69666 5.87571 1632 ft 143 kts 357°
2026-05-04 20:43 45.70641 5.87695 1658 ft 137 kts 15°
2026-05-04 20:44 45.71535 5.88014 1980 ft 129 kts 12°
2026-05-04 20:44 45.72418 5.88272 2146 ft 131 kts 11°
2026-05-04 20:44 45.73316 5.88519 2339 ft 131 kts 11°
2026-05-04 20:44 45.74220 5.88762 2515 ft 132 kts 11°
2026-05-04 20:45 45.75125 5.89002 2555 ft 133 kts 11°
2026-05-04 20:45 45.76428 5.89354 3138 ft 202 kts 12°
2026-05-04 20:45 45.77756 5.89726 2454 ft 190 kts 12°
2026-05-04 20:45 45.79170 5.90127 1913 ft 0 kts 18°
2026-05-04 20:46 45.79170 5.90126 1913 ft 0 kts 18°
2026-05-04 20:46 45.79176 5.90130 1911 ft 0 kts 27°
2026-05-04 20:46 45.79180 5.90131 1912 ft 1 kts 29°
2026-05-04 20:47 45.79181 5.90131 1912 ft 0 kts 46°
2026-05-04 20:48 45.79208 5.90126 2337 ft 0 kts 50°
2026-05-04 20:48 45.79212 5.90133 4127 ft 249 kts 50°
2026-05-04 20:48 45.80356 5.91366 5114 ft 184 kts 24°
2026-05-04 20:49 45.81632 5.91723 5513 ft 188 kts
2026-05-04 20:49 45.82938 5.91910 5916 ft 192 kts
2026-05-04 20:49 45.84284 5.92092 6310 ft 195 kts
2026-05-04 20:49 45.85183 5.92098 6596 ft 195 kts 359°
2026-05-04 20:50 45.86515 5.92029 7085 ft 184 kts 357°
2026-05-04 20:50 45.87792 5.91877 7277 ft 189 kts 353°
2026-05-04 20:50 45.89558 5.91851 7426 ft 195 kts 12°
2026-05-04 20:50 45.90377 5.92454 7501 ft 196 kts 37°
2026-05-04 20:51 45.91536 5.93398 7721 ft 194 kts 24°
2026-05-04 20:51 45.92856 5.93819 7916 ft 194 kts
2026-05-04 20:51 45.94208 5.93689 8044 ft 196 kts 353°
2026-05-04 20:51 45.95541 5.93729 8443 ft 186 kts
2026-05-04 20:52 45.96814 5.93804 8802 ft 186 kts
2026-05-04 20:52 45.98125 5.94188 8956 ft 195 kts 13°
2026-05-04 20:52 45.99430 5.94603 9336 ft 189 kts
2026-05-04 20:52 46.00723 5.94866 9602 ft 192 kts
2026-05-04 20:53 46.02019 5.95130 10080 ft 182 kts
2026-05-04 20:53 46.03281 5.95263 10411 ft 183 kts
2026-05-04 20:53 46.04550 5.95484 10717 ft 189 kts
2026-05-04 20:53 46.05905 5.95740 10750 ft 202 kts
2026-05-04 20:54 46.07290 5.95911 11053 ft 197 kts
2026-05-04 20:54 46.08593 5.96473 11237 ft 203 kts 39°
2026-05-04 20:54 46.09096 5.98284 11350 ft 197 kts 96°
2026-05-04 20:54 46.08862 6.00195 11581 ft 191 kts 106°
2026-05-04 20:55 46.08656 6.02039 11941 ft 185 kts 105°
2026-05-04 20:55 46.08461 6.03887 12231 ft 179 kts 102°
2026-05-04 20:55 46.08363 6.05605 12644 ft 168 kts 99°
2026-05-04 20:55 46.08298 6.07256 12927 ft 162 kts 107°
2026-05-04 20:56 46.08144 6.08852 13219 ft 161 kts 104°
2026-05-04 20:56 46.07987 6.10498 13301 ft 172 kts 104°
2026-05-04 20:56 46.07831 6.12201 13071 ft 175 kts 104°
2026-05-04 20:56 46.07733 6.14001 13013 ft 181 kts 98°
2026-05-04 20:57 46.07719 6.15756 13300 ft 168 kts 95°
2026-05-04 20:57 46.07828 6.17370 13538 ft 165 kts 74°
2026-05-04 20:57 46.08616 6.18535 13723 ft 167 kts 32°
2026-05-04 20:57 46.09673 6.19365 13143 ft 174 kts 20°
2026-05-04 20:58 46.10749 6.19693 13136 ft 151 kts 339°
2026-05-04 20:58 46.11555 6.18918 13328 ft 139 kts 316°
2026-05-04 20:58 46.12341 6.18075 13342 ft 146 kts 308°
2026-05-04 20:58 46.12967 6.16917 13354 ft 143 kts 288°
2026-05-04 20:59 46.13240 6.15658 13596 ft 126 kts 271°
2026-05-04 20:59 46.13337 6.14334 13401 ft 136 kts 264°
2026-05-04 20:59 46.13182 6.13056 13270 ft 129 kts 242°
2026-05-04 20:59 46.12791 6.11917 13129 ft 127 kts 237°
2026-05-04 21:00 46.12259 6.10916 12978 ft 125 kts 226°
2026-05-04 21:00 46.11668 6.10031 12911 ft 117 kts 222°
2026-05-04 21:00 46.11050 6.09337 12990 ft 116 kts 207°
2026-05-04 21:00 46.10241 6.09610 12941 ft 133 kts 151°
2026-05-04 21:01 46.09533 6.10415 13058 ft 129 kts 149°
2026-05-04 21:01 46.08877 6.11296 13141 ft 128 kts 141°
2026-05-04 21:01 46.08270 6.12290 13274 ft 140 kts 140°
2026-05-04 21:01 46.07617 6.13333 13541 ft 142 kts 140°
2026-05-04 21:02 46.06984 6.14402 13620 ft 150 kts 139°
2026-05-04 21:02 46.06286 6.15478 13929 ft 141 kts 135°
2026-05-04 21:02 46.05652 6.16386 13611 ft 127 kts 150°
2026-05-04 21:02 46.04929 6.17267 13505 ft 143 kts 149°
2026-05-04 21:03 46.04193 6.18249 13764 ft 137 kts 143°
2026-05-04 21:03 46.03591 6.19291 14012 ft 134 kts 139°
2026-05-04 21:03 46.02929 6.20362 13995 ft 147 kts 141°
2026-05-04 21:03 46.02286 6.21444 14206 ft 144 kts 136°
2026-05-04 21:04 46.01669 6.22586 14343 ft 146 kts 135°
2026-05-04 21:04 46.01157 6.23906 14430 ft 152 kts 129°
2026-05-04 21:04 46.00584 6.25143 14608 ft 146 kts 138°
2026-05-04 21:04 45.99956 6.26308 14719 ft 150 kts 134°
2026-05-04 21:05 45.99399 6.27588 14794 ft 150 kts 141°
2026-05-04 21:05 45.98617 6.28549 14898 ft 144 kts 157°
2026-05-04 21:05 45.97706 6.29160 15025 ft 141 kts 165°
2026-05-04 21:05 45.96797 6.29689 15127 ft 145 kts 164°
2026-05-04 21:06 45.95906 6.30391 15175 ft 152 kts 156°
2026-05-04 21:06 45.95033 6.31175 15288 ft 137 kts 156°
2026-05-04 21:06 45.94309 6.31971 15317 ft 138 kts 148°
2026-05-04 21:06 45.93595 6.32960 14766 ft 144 kts 146°
2026-05-04 21:07 45.92848 6.33991 14131 ft 151 kts 145°
2026-05-04 21:07 45.92132 6.34999 13796 ft 137 kts 144°
2026-05-04 21:07 45.91469 6.36063 13665 ft 147 kts 141°
2026-05-04 21:07 45.90700 6.37049 13318 ft 146 kts 151°
2026-05-04 21:08 45.89961 6.37839 13094 ft 130 kts 154°
2026-05-04 21:08 45.89233 6.38564 12890 ft 120 kts 155°
2026-05-04 21:08 45.88555 6.39203 12800 ft 113 kts 155°
2026-05-04 21:08 45.87981 6.39945 12806 ft 114 kts 143°
2026-05-04 21:09 45.87483 6.40945 12983 ft 133 kts 126°
2026-05-04 21:09 45.87116 6.42203 13327 ft 134 kts 117°
2026-05-04 21:09 45.86945 6.43524 13490 ft 132 kts 102°
2026-05-04 21:09 45.86782 6.44735 13187 ft 129 kts 115°
2026-05-04 21:10 45.86649 6.46069 12833 ft 126 kts 114°
2026-05-04 21:10 45.86233 6.47181 12186 ft 142 kts 141°
2026-05-04 21:10 45.85501 6.48183 12233 ft 143 kts 142°
2026-05-04 21:10 45.84775 6.49202 12120 ft 153 kts 144°
2026-05-04 21:11 45.84051 6.50252 12051 ft 138 kts 142°
2026-05-04 21:11 45.83364 6.51162 11895 ft 137 kts 148°
2026-05-04 21:11 45.82573 6.51878 11843 ft 130 kts 155°
2026-05-04 21:11 45.81783 6.52463 11692 ft 132 kts 162°
2026-05-04 21:12 45.80911 6.52845 11530 ft 129 kts 168°
2026-05-04 21:12 45.80080 6.53217 11552 ft 124 kts 164°
2026-05-04 21:12 45.79262 6.53699 11365 ft 130 kts 161°
2026-05-04 21:12 45.78452 6.54220 11282 ft 126 kts 158°
2026-05-04 21:13 45.77700 6.54844 11239 ft 123 kts 150°
2026-05-04 21:13 45.76952 6.55392 11206 ft 120 kts 158°
2026-05-04 21:13 45.76266 6.56103 11134 ft 127 kts 137°
2026-05-04 21:13 45.75708 6.57120 10970 ft 130 kts 149°
2026-05-04 21:14 45.75013 6.57830 11095 ft 117 kts 145°
2026-05-04 21:14 45.74380 6.58604 10991 ft 124 kts 155°
2026-05-04 21:14 45.73633 6.59147 10991 ft 119 kts 157°
2026-05-04 21:14 45.72901 6.59626 11090 ft 111 kts 159°
2026-05-04 21:15 45.72176 6.59962 11198 ft 108 kts 168°
2026-05-04 21:15 45.71453 6.60232 11294 ft 107 kts 168°
2026-05-04 21:15 45.70721 6.60531 11266 ft 116 kts 167°
2026-05-04 21:15 45.69931 6.60959 11253 ft 121 kts 158°
2026-05-04 21:16 45.69208 6.61530 11271 ft 119 kts 154°
2026-05-04 21:16 45.68494 6.62142 11226 ft 121 kts 155°
2026-05-04 21:16 45.67752 6.62695 11190 ft 120 kts 163°
2026-05-04 21:16 45.66980 6.63175 11112 ft 123 kts 160°
2026-05-04 21:17 45.66171 6.63659 11073 ft 122 kts 160°
2026-05-04 21:17 45.65397 6.64090 11128 ft 117 kts 162°
2026-05-04 21:17 45.64620 6.64496 10995 ft 123 kts 160°
2026-05-04 21:17 45.63907 6.65147 10885 ft 122 kts 143°
2026-05-04 21:18 45.63123 6.65626 10761 ft 125 kts 168°
2026-05-04 21:18 45.62226 6.65823 10489 ft 136 kts 172°
2026-05-04 21:18 45.61338 6.66004 10442 ft 123 kts 169°
2026-05-04 21:18 45.60525 6.66217 10550 ft 116 kts 177°
2026-05-04 21:19 45.59700 6.66239 10556 ft 116 kts 180°
2026-05-04 21:19 45.58937 6.66215 10736 ft 106 kts 177°
2026-05-04 21:19 45.58177 6.66355 10633 ft 120 kts 168°
2026-05-04 21:19 45.57329 6.66176 10537 ft 126 kts 197°
2026-05-04 21:20 45.56529 6.65890 10674 ft 113 kts 182°
2026-05-04 21:20 45.55645 6.65594 10112 ft 132 kts 190°
2026-05-04 21:20 45.54853 6.65240 9614 ft 120 kts 200°
2026-05-04 21:20 45.54033 6.64856 9063 ft 125 kts 192°
2026-05-04 21:21 45.53256 6.64474 8628 ft 117 kts 193°
2026-05-04 21:21 45.52487 6.64135 8185 ft 113 kts 193°
2026-05-04 21:21 45.51669 6.63868 8041 ft 130 kts 177°
2026-05-04 21:21 45.51173 6.62919 7520 ft 167 kts 262°
2026-05-04 21:22 45.51116 6.61249 7321 ft 169 kts 266°
2026-05-04 21:22 45.50916 6.59766 7507 ft 141 kts 226°
2026-05-04 21:22 45.50106 6.59393 7664 ft 121 kts 174°
2026-05-04 21:22 45.49290 6.59591 7769 ft 117 kts 163°
2026-05-04 21:23 45.48552 6.60079 7825 ft 120 kts 141°
2026-05-04 21:23 45.47953 6.60862 7859 ft 114 kts 129°
2026-05-04 21:23 45.47384 6.61556 7875 ft 109 kts 161°
2026-05-04 21:23 45.46602 6.61805 7782 ft 118 kts 167°
2026-05-04 21:24 45.45829 6.62259 7751 ft 123 kts 150°
2026-05-04 21:24 45.45202 6.63008 7845 ft 114 kts 127°
2026-05-04 21:24 45.44792 6.64006 7776 ft 120 kts 123°
2026-05-04 21:24 45.44277 6.64893 7845 ft 112 kts 135°
2026-05-04 21:25 45.43545 6.65413 7651 ft 126 kts 176°
2026-05-04 21:25 45.42696 6.65153 7207 ft 129 kts 198°
2026-05-04 21:25 45.41769 6.64743 6802 ft 140 kts 188°
2026-05-04 21:25 45.40818 6.64401 6529 ft 144 kts 198°
2026-05-04 21:26 45.39948 6.63755 6477 ft 134 kts 208°
2026-05-04 21:26 45.39603 6.63466 6673 ft 0 kts 307°
2026-05-04 21:27 45.39604 6.63468 6673 ft 0 kts 343°
2026-05-04 21:29 45.39600 6.63363 6660 ft 0 kts 343°
2026-05-04 21:29 45.39695 6.63463 6628 ft 51 kts 34°
2026-05-04 21:29 45.40178 6.64106 6485 ft 121 kts 49°
2026-05-04 21:29 45.40640 6.65215 6448 ft 146 kts 76°
2026-05-04 21:30 45.41407 6.65667 6089 ft 181 kts 301°
2026-05-04 21:30 45.41057 6.64266 5990 ft 168 kts 183°
2026-05-04 21:30 45.40676 6.64754 5681 ft 0 kts 105°